Location: Estes Park
(40.3770°N, 105.5210°W)
Time: 20:11:41
(UTC-06:00)

N. Korean satellite - Pass Details

Date: 12 October 2017
Orbit: 459 x 517 km, 97.2° (Epoch: 23 October)

Event Time Altitude Azimuth Distance (km) Brightness Sun altitude
Rises 19:43:58 0° 192° (SSW) 2,554 10.4 -15.6°
Reaches altitude 10° 19:46:17 10° 206° (SSW) 1,667 9.6 -16.0°
Maximum altitude 19:49:18 26° 264° (W) 993 9.0 -16.6°
Drops below altitude 10° 19:52:19 10° 322° (NW) 1,651 9.8 -17.2°
Sets 19:54:37 0° 336° (NNW) 2,524 10.6 -17.6°
